Date,TemperatureHighF,TemperatureAvgF,TemperatureLowF,DewpointHighF,DewpointAvgF,DewpointLowF,HumidityHigh,HumidityAvg,HumidityLow,PressureMaxIn,PressureMinIn,WindSpeedMaxMPH,WindSpeedAvgMPH,GustSpeedMaxMPH,PrecipitationSumIn
2013-4-1,43.4,38.2,33.4,32.4,23.1,17.6,70,55,36,30.13,29.85,28,16,28,0.00
2013-4-2,45.6,36.3,27.1,21.9,18.9,14.3,75,51,30,30.25,30.13,24,10,24,0.00
2013-4-3,47.3,38.6,28.4,24.5,20.6,16.6,72,50,32,30.37,30.23,21,8,21,0.00
2013-4-4,59.1,46.2,33.5,28.6,23.9,19.4,67,44,26,30.25,29.94,14,4,14,0.00
2013-4-5,57.3,47.4,39.3,37.6,29.3,21.7,76,52,28,30.10,29.94,21,11,21,0.00
2013-4-6,70.8,56.3,39.7,43.5,36.3,26.0,68,48,34,30.07,29.67,50,21,50,0.00
2013-4-7,72.1,62.4,52.3,47.3,43.6,41.2,73,52,34,29.89,29.68,40,10,40,0.03
2013-4-8,74.5,65.2,56.6,60.3,56.1,42.5,91,73,54,29.88,29.69,40,17,40,0.02
2013-4-9,76.4,69.2,60.9,62.8,59.4,55.0,82,71,56,29.90,29.80,50,16,50,0.00
2013-4-10,73.7,61.4,45.8,66.3,57.0,43.6,95,86,66,29.83,29.60,33,15,33,0.77
2013-4-11,63.1,51.8,41.2,61.0,49.7,34.5,96,92,78,29.74,29.54,28,12,28,0.27
2013-4-12,43.7,40.6,38.0,36.5,34.3,30.7,84,78,72,29.89,29.61,31,15,31,0.00
2013-4-13,50.2,43.7,38.9,38.7,34.8,29.6,85,71,57,29.98,29.88,28,11,28,0.00
2013-4-14,74.0,58.5,43.3,50.0,44.0,37.2,84,61,37,29.94,29.68,35,15,35,0.00
2013-4-15,67.0,60.2,51.2,60.3,54.0,48.1,92,80,62,29.89,29.73,39,17,39,0.12
2013-4-16,51.4,48.7,46.1,48.6,45.4,41.1,98,88,75,30.17,29.85,26,12,26,1.64
2013-4-17,73.5,55.6,46.0,68.0,51.4,39.7,96,86,76,30.15,29.72,38,13,38,0.42
2013-4-18,71.8,62.2,43.9,65.7,59.1,41.3,96,90,78,29.72,29.51,39,17,39,1.98
2013-4-19,43.9,39.3,37.7,41.3,32.7,28.7,91,77,68,29.95,29.58,35,19,35,0.01
2013-4-20,45.9,39.7,33.2,32.2,28.4,25.0,84,65,46,30.35,29.95,20,9,20,0.00
2013-4-21,55.2,44.9,34.8,35.5,30.6,25.6,76,58,45,30.45,30.27,23,11,23,0.00
2013-4-22,67.3,55.7,41.4,43.8,36.4,31.4,68,50,29,30.27,30.01,20,8,20,0.00
2013-4-23,62.5,55.5,41.0,56.2,48.5,38.9,95,79,59,30.02,29.75,37,13,37,0.97
2013-4-24,48.4,42.0,36.5,39.3,35.5,30.7,93,79,53,30.16,29.83,25,13,25,0.19
2013-4-25,53.2,45.9,38.8,36.7,32.5,25.9,84,62,41,30.29,30.12,37,14,37,0.00
2013-4-26,62.9,51.9,37.9,46.9,40.3,33.8,89,66,49,30.35,30.23,25,9,25,0.00
2013-4-27,62.4,54.7,47.0,53.6,46.5,41.3,95,76,47,30.26,29.90,21,8,21,0.20
2013-4-28,59.9,56.4,53.8,55.8,54.2,52.3,99,92,85,29.90,29.80,16,6,16,0.11
2013-4-29,70.9,61.0,50.7,57.2,53.7,49.0,94,78,61,29.93,29.79,28,12,28,0.00
2013-4-30,81.1,69.9,58.4,63.6,58.2,52.4,81,67,53,29.93,29.83,27,15,27,0.00